Volver al catálogo

STARLINK-35618

ActivoComunicacionesVLEO
NORAD 66423·PAYLOAD·🇺🇸 United States

Lanzado Nov 11, 2025 desde Cape Canaveral Space Force Station

Loading…

Próximos Pases (próximas 24 horas)

TLE

ActualizadoSource: CelesTrak SupGP

Época: Sep 14, 2026, 21:01 UTC

1 66423C 25259B   26257.87618056 -.00002100  00000+0 -76079-4 0  2571
2 66423  43.0026 286.0662 0001663 264.4019  84.8875 15.27578199    15

Sigue STARLINK-35618 en tiempo real con AllMySat

Download on the App Store